Regional Weather Roundup
Issued by NWS

Home | Current Version | Previous Version | Text Only | Print | Product List | Glossary Off
Versions: 1 2 3 4 5 6 7 8 9 10 11 12 13 14 15 16 17 18 19 20 21 22 23 24 25 26 27 28 29 30 31 32 33 34 35 36 37 38 39 40 41 42 43 44 45 46 47 48 49 50

000
ASUS45 KTFX 230504
RWRMT
MONTANA HOURLY WEATHER ROUNDUP
NATIONAL WEATHER SERVICE GREAT FALLS MT
1004 PM MST SAT NOV 22 2014

NOTE: "FAIR" INDICATES FEW OR NO CLOUDS BELOW 12000 FEET WITH NO
SIGNIFICANT WEATHER AND/OR OBSTRUCTIONS TO VISIBILITY.

* THESE STATIONS ARE NOT UNDER NWS QUALITY CONTROL. THEY DO NOT
   REPORT WEATHER SUCH AS PRECIPITATION OR FOG.

MTZ001>007-043-230600-
WEST OF THE DIVIDE
CITY           SKY/WX    TMP DP  RH WIND       PRES   REMARKS
KALISPELL      PTCLDY    36  25  64 CALM      29.74R
MISSOULA       CLOUDY    34  27  76 N6        29.80R WCI  29
BUTTE          LGT SNOW  28  25  89 NW7       29.73R WCI  21
MULLAN PASS    LGT SNOW  25  23  92 VRB6      29.77R VSB 1/2  WCI  18
* ESSEX        N/A       35  21  57 SW1G10     N/A
* LINCOLN      N/A       30  22  72 SW4G15     N/A
* LOOKOUT PASS N/A       29  28  96 NE4        N/A
* POLSON       N/A       32  21  64 W2G11      N/A
* RONAN APT    MOCLDY    37  27  67 N/A        N/A
* SEELEY LAKE  N/A       32  23  69 NW4G9      N/A
* THOMP F APT  MOCLDY    19  13  77 NE3G8      N/A
* YAAK HILL    N/A       36  25  64 N1G7       N/A
$$

MTZ008-052>055-230600-
SOUTHWEST MONTANA
CITY           SKY/WX    TMP DP  RH WIND       PRES   REMARKS
BOZEMAN        PTCLDY    32  19  59 CALM      29.72R
DILLON         PTCLDY    25  16  69 SW12      29.74R WCI  14
* W YELLOWSTON PTCLDY    16  12  84 NW2G9      N/A
* ENNIS APT    PTCLDY    32  16  52 S6         N/A   WCI  26
* THREE FORKS  PTCLDY    37  21  52 W15G21     N/A   WCI  28
* BOULDER HILL N/A       29  10  45 NE2G7      N/A
* MONIDA PASS  N/A       17   7  65 W10        N/A   WCI   5
* RAYNOLDS PAS N/A       20  17  88 NW1        N/A
* WHITEHALL    N/A       27  19  72 E3G8       N/A
* WISE RIVER   N/A       27  17  66 NW7G14     N/A   WCI  19
$$

MTZ009>010-012-014-046-048-049-054-230600-
EAST SLOPES AND CENTRAL MONTANA
CITY           SKY/WX    TMP DP  RH WIND       PRES   REMARKS
CUT BANK       PTCLDY    34  18  52 W18       29.57R WCI  23
GREAT FALLS    PTCLDY    32  19  59 W13       29.60R WCI  22
HELENA         PTCLDY    34  19  54 NW7       29.69R WCI  28
MALMSTROM AFB  PTCLDY    36  19  50 W14G23    29.63R WCI  27
* DEARBORN     N/A       39  19  45 S16G26     N/A   WCI  30
* EAST GLACIER N/A       31  14  49 W14G31     N/A   WCI  21
* MONARCH      N/A       29  12  49 SW17G22    N/A   WCI  17
* PENDROY      N/A       32  15  49 NW11G19    N/A   WCI  23
* ROGERS PASS  N/A       25  20  81 NW1        N/A
* SAINT MARY   N/A       32  16  52 SW11G27    N/A   WCI  23
* SWEET GRASS  N/A       31  31 100 NW13G18    N/A   WCI  21
$$

MTZ011-013-016-021-035-040-045-047-050-051-230600-
NORTH CENTRAL MONTANA
CITY           SKY/WX    TMP DP  RH WIND       PRES   REMARKS
HAVRE          CLOUDY    37  30  76 W23G31    29.52R WCI  26
LEWISTOWN      CLOUDY    36  16  44 W20G26    29.57R WCI  25
* N BAR RANCH  CLOUDY    34  14  44 NW24G33   29.52R WCI  22
* CHESTER      N/A       38  22  53 NW17G24    N/A   WCI  29
* DENTON       N/A       37  17  44 W14G20     N/A   WCI  28
* GEYSER       N/A       31  11  43 W9G14      N/A   WCI  23
* JUDITH GAP   N/A       33  12  42 NW12G22    N/A   WCI  24
* LOMA         N/A       40  22  49 SW12G17    N/A   WCI  33
$$

MTZ017>020-022>027-061-062-230600-
NORTHEAST MONTANA
CITY           SKY/WX    TMP DP  RH WIND       PRES   REMARKS
GLASGOW        CLOUDY    37  30  76 W24G33    29.37R WCI  26
GLENDIVE       PTCLDY    37  27  67 W22G28    29.40R WCI  26
JORDAN         CLOUDY    36  32  85 W22G33    29.46R WCI  25
SIDNEY         PTCLDY    39  27  62 SW18G25   29.35R WCI  30
WOLF POINT     CLOUDY    39  32  76 W18G31    29.35R WCI  30
* BEAVER HILL  N/A       39  25  57 SW20G26    N/A   WCI  29
* CIRCLE       N/A       37  33  85 W8G19      N/A   WCI  31
* LINDSAY DVD  N/A       37  27  67 W28G35     N/A   WCI  25
* NAVAJO       N/A       37  31  79 W29G36     N/A   WCI  25
* SACO         N/A       38  32  79 W32G39     N/A   WCI  25
$$

MTZ028>042-056>058-230600-
SOUTHCENTRAL AND SOUTHEAST MONTANA
CITY           SKY/WX    TMP DP  RH WIND       PRES   REMARKS
BAKER          CLOUDY    39  27  62 W15       29.43R WCI  31
BILLINGS       FAIR      37  14  39 W15G26    29.60R WCI  28
LIVINGSTON     CLOUDY    37  18  46 SW13      29.67R WCI  29
MILES CITY     CLEAR     39  25  57 NW32G39   29.49R WCI  27
* LAUREL APT   CLEAR     39  12  33 W9         N/A   WCI  33
* ALZADA       N/A       38  32  79 W11        N/A   WCI  31
* HYSHAM       N/A       37  13  37 W3         N/A
* LAME DEER    N/A       35  14  42 W23        N/A   WCI  23
* REED POINT   N/A       40  16  38 W17G28     N/A   WCI  31
* ROSCOE HILL  N/A       34   2  25 SW7G19     N/A   WCI  28
$$

REGIONAL REPORTS...DAKOTAS
CITY           SKY/WX    TMP DP  RH WIND       PRES   REMARKS
WILLISTON      PTCLDY    39  27  62 W20G25    29.28S WCI  29
DICKINSON      CLOUDY    39  34  82 W16       29.35R WCI  30
BEACH          PTCLDY    37  28  70 W16       29.40R WCI  28
CROSBY         CLEAR     34  28  79 SW16      29.23R WCI  24
BISMARCK       CLEAR     34  34 100 W7        29.36R WCI  28
GRAND FORKS    CLOUDY    34  30  85 S14       29.36F WCI  24
FARGO          FOG       36  34  92 S15       29.38S WCI  27
BUFFALO SD     CLOUDY    39  32  76 W14       29.38R WCI  31
RAPID CITY     CLOUDY    39  34  82 N28G37    29.47R WCI  27
$$

REGIONAL REPORTS...WYOMING/IDAHO/WASHINGTON
CITY           SKY/WX    TMP DP  RH WIND       PRES   REMARKS
GILLETTE       CLOUDY    37  21  52 NW20G26   29.55R WCI  27
SHERIDAN       PTCLDY    28  19  69 W5        29.59R WCI  22
CODY           PTCLDY    36   9  32 NW7       29.63R WCI  30
YELLOWSTONE LA PTCLDY    10   7  88 NW3       29.72R
SALMON         CLOUDY    32  21  64 CALM      29.79R
MULLAN PASS    LGT SNOW  25  23  92 VRB6      29.77S VSB 1/2  WCI  18
SAND POINT     PTCLDY    36  32  85 S14G20    29.84R WCI  27
SPOKANE        FAIR      30  30 100 SW6       29.89R WCI  24

$$



USA.gov is the U.S. government's official web portal to all federal, state and local government web resources and services.